DW3195 Weather Reports


time (UTC)temp
C
wind
direction
speed
KPH
gust
KPH
rain 1hr
cm
rain 24hr
cm
rain mn
cm
humidity
%
barometer
mb
20260504130504 12 346 4.8 16.1 0.00 0.00 0.00 60 925.2
20260504110506 6 278 1.6 4.8 0.00 0.00 0.00 77 923.7
20260504100506 7 329 0.0 4.8 0.00 0.00 0.00 76 924.0
20260504081505 5 265 0.0 3.2 0.00 0.00 0.00 83 924.1
20260504081006 5 351 3.2 4.8 0.00 0.00 0.00 85 924.1
20260504080505 4 338 1.6 4.8 0.00 0.00 0.00 88 924.1
20260504050505 0 17 0.0 3.2 0.00 0.00 0.00 92 925.1
20260504050005 0 8 1.6 3.2 0.00 0.00 0.00 92 925.2
20260504044504 1 95 0.0 1.6 0.00 0.00 0.00 90 925.0
20260504044005 1 17 0.0 1.6 0.00 0.00 0.00 90 925.0
20260504043004 1 36 0.0 3.2 0.00 0.00 0.00 90 924.9
20260504041504 1 45 0.0 1.6 0.00 0.00 0.00 88 924.8
20260504040505 1 83 0.0 1.6 0.00 0.00 0.00 88 924.9
20260504040005 1 19 0.0 3.2 0.00 0.00 0.00 88 924.8
20260504034504 2 1 0.0 1.6 0.00 0.00 0.00 87 924.8
20260504034004 2 35 1.6 3.2 0.00 0.00 0.00 88 924.8
20260504033504 2 34 1.6 3.2 0.00 0.00 0.00 87 924.8
20260504033004 2 357 0.0 3.2 0.00 0.00 0.00 87 924.8
20260504031506 2 308 1.6 3.2 0.00 0.00 0.00 87 924.6
20260504031006 2 9 1.6 3.2 0.00 0.00 0.00 87 924.7
20260504030506 2 82 0.0 3.2 0.00 0.00 0.00 86 924.6
20260504030006 2 33 0.0 3.2 0.00 0.00 0.00 87 924.5
20260504024506 2 34 3.2 3.2 0.00 0.00 0.00 88 924.9
20260504024006 2 35 0.0 3.2 0.00 0.00 0.00 86 925.0
20260504023506 2 181 0.0 1.6 0.00 0.00 0.00 86 925.0
20260504021506 2 107 0.0 1.6 0.00 0.00 0.00 83 924.8
20260504021006 3 59 0.0 1.6 0.00 0.00 0.00 83 924.8
20260504020506 3 126 0.0 1.6 0.00 0.00 0.00 81 924.8
20260504020006 3 87 0.0 1.6 0.00 0.00 0.00 82 924.7
20260504014506 4 40 0.0 3.2 0.00 0.00 0.00 77 924.6
20260504014007 4 28 0.0 3.2 0.00 0.00 0.00 77 924.5
20260504013506 5 63 0.0 1.6 0.00 0.00 0.00 74 924.5
20260504013005 5 4 1.6 4.8 0.00 0.00 0.00 74 924.4
20260504011506 5 9 1.6 3.2 0.00 0.00 0.00 72 924.4
20260504011005 5 9 1.6 3.2 0.00 0.00 0.00 71 924.2
20260504010505 6 337 0.0 1.6 0.00 0.00 0.00 70 924.2
20260504010006 6 0 1.6 3.2 0.00 0.00 0.00 69 924.1
20260504004505 7 21 1.6 3.2 0.00 0.00 0.00 64 924.1
20260504004005 7 16 0.0 3.2 0.00 0.00 0.00 61 924.1
20260504003505 8 18 1.6 4.8 0.00 0.00 0.00 60 924.0
20260504003005 8 10 0.0 4.8 0.00 0.00 0.00 58 924.0
20260504001505 10 19 4.8 4.8 0.00 0.00 0.00 54 923.7
20260504000005 11 349 3.2 4.8 0.00 0.00 0.00 47 923.7
20260503234505 12 9 1.6 4.8 0.00 0.00 0.00 42 923.7
20260503234005 12 347 3.2 11.3 0.00 0.00 0.00 41 923.7
20260503233505 13 355 3.2 11.3 0.00 0.00 0.00 41 923.7
20260503233006 13 349 4.8 14.5 0.00 0.00 0.00 38 923.7
20260503231505 14 355 3.2 8.0 0.00 0.00 0.00 37 923.9
20260503231005 15 322 4.8 11.3 0.00 0.00 0.00 36 923.9
20260503230506 15 340 8.0 12.9 0.00 0.00 0.00 35 923.9
20260503224505 16 299 6.4 12.9 0.00 0.00 0.00 35 923.9
20260503224006 16 289 3.2 12.9 0.00 0.00 0.00 33 923.9
20260503223505 16 274 6.4 11.3 0.00 0.00 0.00 33 924.0
20260503223005 16 299 4.8 14.5 0.00 0.00 0.00 33 924.0
20260503221505 16 307 4.8 9.7 0.00 0.00 0.00 33 923.9
20260503221005 16 292 4.8 11.3 0.00 0.00 0.00 31 923.9
20260503220505 16 342 4.8 12.9 0.00 0.00 0.00 30 924.0
20260503214505 16 302 6.4 12.9 0.00 0.00 0.00 32 924.0
20260503214004 16 283 4.8 9.7 0.00 0.00 0.00 32 924.0
20260503213505 16 61 4.8 12.9 0.00 0.00 0.00 32 924.1
20260503213005 15 349 4.8 16.1 0.00 0.00 0.00 31 924.1
20260503211505 15 287 8.0 11.3 0.00 0.00 0.00 32 924.2
20260503211005 15 298 4.8 12.9 0.00 0.00 0.00 34 924.3
20260503210504 15 336 8.0 12.9 0.00 0.00 0.00 33 924.3
20260503210005 15 330 6.4 20.9 0.00 0.00 0.00 34 924.3
20260503204504 15 314 8.0 14.5 0.00 0.00 0.00 32 924.2
20260503203505 15 302 6.4 19.3 0.00 0.00 0.00 31 924.3
20260503203005 15 278 8.0 19.3 0.00 0.00 0.00 32 924.4
20260503201504 15 301 6.4 12.9 0.00 0.00 0.00 35 924.8
20260503201005 15 6 3.2 12.9 0.00 0.00 0.00 35 924.8
20260503200505 15 20 4.8 12.9 0.00 0.00 0.00 35 924.9
20260503200004 14 348 4.8 14.5 0.00 0.00 0.00 36 924.9
20260503194504 14 308 4.8 11.3 0.00 0.00 0.00 34 925.2
20260503194005 14 282 3.2 12.9 0.00 0.00 0.00 35 925.2
20260503193504 14 108 8.0 14.5 0.00 0.00 0.00 36 925.4
20260503191504 13 299 4.8 11.3 0.00 0.00 0.00 35 925.6
20260503191004 13 273 8.0 20.9 0.00 0.00 0.00 37 925.6
20260503190005 13 286 8.0 19.3 0.00 0.00 0.00 38 926.0
20260503184504 13 278 1.6 14.5 0.00 0.00 0.00 38 926.1
20260503184005 12 255 4.8 14.5 0.00 0.00 0.00 40 926.2
20260503183504 12 286 4.8 11.3 0.00 0.00 0.00 36 926.2
20260503183004 12 150 6.4 16.1 0.00 0.00 0.00 37 926.2
20260503181505 12 285 8.0 14.5 0.00 0.00 0.00 33 926.2
20260503181006 12 188 4.8 11.3 0.00 0.00 0.00 36 926.3
20260503180006 12 331 4.8 14.5 0.00 0.00 0.00 36 926.4
20260503174006 12 280 6.4 12.9 0.00 0.00 0.00 38 926.7
20260503173506 11 295 9.7 16.1 0.00 0.00 0.00 38 926.8
20260503173006 11 285 6.4 14.5 0.00 0.00 0.00 38 926.8
20260503171505 11 279 3.2 9.7 0.00 0.00 0.00 40 926.8
20260503171005 11 151 4.8 11.3 0.00 0.00 0.00 39 926.9
20260503170506 11 268 4.8 9.7 0.00 0.00 0.00 41 926.9
20260503151005 8 185 3.2 9.7 0.00 0.00 0.00 44 927.6
20260503150506 8 238 8.0 14.5 0.00 0.00 0.00 48 927.8